Hourly Data Report for October 23, 2016

All times are specified in Local Standard Time (LST). Add 1 hour to adjust for Daylight Saving Time where and when it is observed.

PENTICTON A
BRITISH COLUMBIA

49°27'45.000" N
119°36'08.000" W
344.40 m
1126146
71889
YYF

Download Data

Hourly Data (October 2016)
Hourly Data Report for October 23, 2016
Temp Definition
°C
Dew Point Temp Definition
°C
Rel Hum Definition
%
Wind Dir Definition
10's deg

Wind Spd Definition
km/h
Visibility Definition
km
Stn Press Definition
kPa
Hmdx Definition


Wind Chill Definition


Weather Definition


TIME
00:00 Legend Double Dagger 9.4 4.2 70 27 5 24.1 97.32     LegendNANA
01:00 Legend Double Dagger 9.5 4.3 70 28 3 24.1 97.34     Cloudy
02:00 Legend Double Dagger 7.7 4.5 80 36 2 24.1 97.36     LegendNANA
03:00 Legend Double Dagger 6.9 4.4 84 1 3 24.1 97.35     LegendNANA
04:00 Legend Double Dagger 7.9 5.4 84 34 8 16.1 97.39     Rain Showers
05:00 Legend Double Dagger 7.2 5.7 90 34 7 19.3 97.43     Rain Showers
06:00 Legend Double Dagger 6.6 5.4 92 34 6 24.1 97.43     LegendNANA
07:00 Legend Double Dagger 5.2 4.3 94 1 6 24.1 97.47     Mostly Cloudy
08:00 Legend Double Dagger 9.3 6.2 81 2 3 24.1 97.53     LegendNANA
09:00 Legend Double Dagger 10.7 5.9 72 3 5 24.1 97.55     LegendNANA
10:00 Legend Double Dagger 11.2 6.0 70 1 10 24.1 97.56     Mostly Cloudy
11:00 Legend Double Dagger 11.5 5.4 66 35 13 24.1 97.57     LegendNANA
12:00 Legend Double Dagger 12.7 5.2 60 2 6 24.1 97.51     LegendNANA
13:00 Legend Double Dagger 12.3 4.3 58 35 10 22.5 97.46     Mostly Cloudy
14:00 Legend Double Dagger 12.8 5.0 59 35 9 24.1 97.45     LegendNANA
15:00 Legend Double Dagger 12.4 4.2 57 36 14 24.1 97.43     LegendNANA
16:00 Legend Double Dagger 11.4 6.0 69 35 9 24.1 97.43     Mostly Cloudy
17:00 Legend Double Dagger 9.6 5.6 76 33 8 24.1 97.41     LegendNANA
18:00 Legend Double Dagger 7.1 4.8 85 36 6 24.1 97.41     LegendNANA
19:00 Legend Double Dagger 7.6 4.7 82 1 4 24.1 97.42     Cloudy
20:00 Legend Double Dagger 7.8 5.6 86 1 4 24.1 97.40     Rain Showers
21:00 Legend Double Dagger 8.0 5.5 84 2 9 24.1 97.40     LegendNANA
22:00 Legend Double Dagger 7.7 6.0 89 1 7 24.1 97.39     Cloudy
23:00 Legend Double Dagger 7.2 5.0 86 36 7 24.1 97.35     LegendNANA

Notes on Data Quality.

Legend

  • E = Estimated
  • M = Missing
  • NA = Not Available
  • ‡ = Partner data that is not subject to review by the National Climate Archives
Date modified: